User: anonymous   Login
Location: Handeloh
(53.2500°N, 9.8330°E)
Time: 11:54:14
(UTC+01:00)
Language:

Vanguard 1 Rocket - Orbit

View from above orbital plane
View from above orbital plane
View from above satellite
View from above satellite

Ground track
Ground track

The orbit data is extracted from the following two-line orbital elements,

1    16U 58002A   19318.40044524 -.00000130  00000-0 -15225-3 0  9991
2    16  34.2651  58.4502 2027394  46.8401 328.4787 10.48733626436141
Epoch (UTC): 14 November 2019 09:36:38
Eccentricity: 0.2027394
inclination: 34.2651°
perigee height: 651 km
apogee height: 4225 km
right ascension of ascending node: 58.4502°
argument of perigee: 46.8401°
revolutions per day: 10.48733626
mean anomaly at epoch: 328.4787°
orbit number at epoch: 43614

The dashed part of the orbit path shows where the satellite is in the earth's shadow,  

DLR